Terug naar catalogus

STARLINK-31693

ActiefCommunicatieVLEO
NORAD 59441·PAYLOAD·🇺🇸 United States

Gelanceerd Apr 7, 2024 vanaf Vandenberg Space Force Base

Loading…

Volgende Passages (komende 24 uur)

TLE

VersSource: CelesTrak SupGP

Epoch: Sep 15, 2026, 02:41 UTC

1 59441C 24065W   26258.11229167  .00044709  00000+0  13211-2 0  2583
2 59441  53.1573 119.0924 0001346  93.7904 113.3318 15.34363271    17

Volg STARLINK-31693 in realtime met AllMySat

Download on the App Store